Location: Newark
(33.4133°N, 82.3847°W)
Time: 01:18:09
(UTC+00:00)

Hubble Space Telescope - Pass Details

Date: 03 February 2020
Orbit: 536 x 540 km, 28.5° (Epoch: 25 February)

Event Time Altitude Azimuth Distance (km) Brightness Sun altitude
Exits shadow 09:40:50 13° 112° (ESE) 1,568 3.8 -34.4°
Drops below altitude 10° 09:41:29 10° 107° (ESE) 1,777 4.1 -34.3°
Sets 09:43:57 0° 95° (E) 2,669 5.4 -33.7°
